Weather in Shenkursk

Russia / Arkhangel'skaya Oblast'     62°06′20″N   42°53′58″E
В апреле 2022 года жителям России запретили посещать сайт meteo.paraplan.net по решению Генеральной прокуратуры. Аудитория сайта уменьшилась в 10 раз. Владельцы сайта не видят смысла в поддержке погодного сервера в таких условиях. Сайт будет закрыт в октябре.
temp.,
°C
wind,
m/s
gust,
m/s
humid.,
%
clouds,
%
prec.,
mm/h
press.,
hPa
HPBL,
m
4 october, tue
tue400:00+8e41294100 0.0 1011463
03:00+9se31197100 0.3 1011465
06:00+11s41192100 0.1 1012628
09:00+11s310880 0.1 1014633
12:00+13sse48725 0.0 1015725
15:00+14sse4973100 0.0 1015908
18:00+11se41184100 0.0 1016414
21:00+10sse3989100 0.0 1016360
5 october, wed
wed500:00+9se3890100 0.0 1016324
03:00+9se379599 0.0 1016272
06:00+7se3797100 0.0 1015323
09:00+10ese378687 0.0 1014399
12:00+10se3783100 0.0 1014550
15:00+9se3789100 0.3 1014452
18:00+8sse269389 0.3 1014314
21:00+8ese249388 0.3 1013144
6 october, thu
thu600:00+8ese2397100 0.2 1013134
03:00+8ese1297100 0.4 101391
06:00+8sse1197100 0.0 101345
09:00+9ssw2492100 0.0 1012260
12:00+10ssw348498 0.0 1012582
15:00+11ssw357584 0.1 1011912
18:00+7s310914 0.0 1010250
21:00+7ssw5138484 0.0 1007635
7 october, fri
fri700:00+7ssw51388100 1.1 1005687
03:00+7ssw61389100 1.1 1001675
06:00+8sw41296100 2.9 1000718
09:00+9w51190100 5.4 10011086
12:00+9wsw51183100 0.1 10031150
15:00+10w398169 0.3 10041131
18:00+8w4118481 0.3 1006748
21:00+8w4118746 0.4 1008688
8 october, sat
sat800:00+7w4118778 0.0 1010747
03:00+8w4976100 0.0 1011553
06:00+7wsw51087100 0.0 1012735
09:00+8ssw41088100 0.0 1012587
12:00+8ssw51190100 0.3 1011710
15:00+9ssw51191100 0.3 1010744
18:00+9ssw51181100 0.0 1010697
21:00+8ssw51389100 0.0 1009614